Regional Weather Roundup
Issued by NWS

Home | Current Version | Previous Version | Text Only | Print | Product List | Glossary Off
Versions: 1 2 3 4 5 6 7 8 9 10 11 12 13 14 15 16 17 18 19 20 21 22 23 24 25 26 27 28 29 30 31 32 33 34 35 36 37 38 39 40 41 42 43 44 45 46 47 48 49 50

000
ASUS43 KMPX 301101
RWRMN
WEATHER ROUNDUP FOR MINNESOTA
NATIONAL WEATHER SERVICE TWIN CITIES/CHANHASSEN MN
600 AM CDT THU MAR 30 2017


NOTE: "FAIR" INDICATES FEW OR NO CLOUDS BELOW 12,000 FEET WITH NO
SIGNIFICANT WEATHER AND/OR OBSTRUCTIONS TO VISIBILITY. N/A MEANS
CURRENT SKY AND/OR WEATHER CONDITIONS ARE NOT AVAILABLE.

MNZ060>063-068>070-301200-
   Twin Cities Metro

CITY           SKY/WX    TMP DP  RH WIND       PRES   REMARKS
TWIN CITIES    CLOUDY    39  35  86 NE9G18    29.95F
ST PAUL        CLOUDY    39  37  92 NE9       29.97F
CRYSTAL        CLOUDY    39  34  82 NE8       29.95F
BLAINE         CLOUDY    41  37  87 NE9       29.96F
LAKEVILLE      CLOUDY    36  36 100 NE10G17   29.93F
EDEN PRAIRIE   CLOUDY    40  37  89 NE13      29.93F
SOUTH ST PAUL  CLOUDY    38  37  96 NE6       29.95F
LAKE ELMO      CLOUDY    37  36  93 NE7       29.97F
$$
MNZ001>005-007-008-013>017-022>024-027-028-301200-
   Northwest Minnesota

CITY           SKY/WX    TMP DP  RH WIND       PRES   REMARKS
BEMIDJI        PTCLDY    27  27  98 SE5       30.01S WCI  22
HALLOCK        CLOUDY    39  37  93 S10       29.93F
ROSEAU         CLOUDY    36  32  87 SE8       29.97F
WARROAD        CLOUDY    36  30  80 S5        29.99S
THIEF RVR FALL CLEAR     35  33  92 S5        29.99R WCI  31
CROOKSTON      CLEAR     34  34 100 S7        29.98S WCI  28
FOSSTON        MOCLDY    32  30  93 SE6       29.99S WCI  26
DETROIT LAKES  FOG       36  34  93 SE7       30.00S VSB 1/4
MOORHEAD       CLEAR     32  32 100 SE5       29.98F FOG     WCI  27
PARK RAPIDS    CLOUDY    32  27  81 SE5       30.00F WCI  27
MAHNOMEN       PTSUNNY   35  34  98 S5        29.98F WCI  31
$$
MNZ006-009>011-018-025>026-301200-
   North Central Minnesota

CITY           SKY/WX    TMP DP  RH WIND       PRES   REMARKS
BAUDETTE       CLEAR     30  27  88 E5        30.00S WCI  25
FLAG ISLAND    PTCLDY    34  30  86 SE12      29.98S WCI  25
INTL FALLS     CLEAR     26  23  88 SE6       30.03S WCI  19
WASKISH        CLEAR     30  28  93 SE3       30.00F
BIG FORK       CLEAR     28  25  86 CALM      30.04R
LONGVILLE      CLOUDY    27  27 100 SE5       30.03S FOG     WCI  21
GRAND RAPIDS   FOG       27  26  96 SE6       30.05F VSB 1/2 WCI  20
CRANE LAKE     CLEAR     21  21 100 CALM      30.08R
ORR            CLEAR     27  21  80 CALM      30.03R
COOK           CLEAR     25  23  93 CALM      30.05R
WALKER         FAIR      28  27  95 CALM      30.01F
$$
MNZ012-019>021-037-301200-
   Northeast Minnesota

CITY           SKY/WX    TMP DP  RH WIND       PRES   REMARKS
DULUTH         CLOUDY    31  30  96 E7        30.04F WCI  24
ELY            CLOUDY    23  21  93 CALM      30.06S
HIBBING        MOCLDY    22  22 100 CALM      30.04F
EVELETH        PTCLDY    25  23  93 NE3       30.06F
DULUTH HARBOR  CLOUDY    36  34  93 NE14      30.08F
TWO HARBORS    CLOUDY    34  28  80 NE5       30.05F WCI  30
GRAND MARAIS     N/A     35  27  72 NE8       30.12S WCI  29
G MARAIS ARPRT CLOUDY    28  21  74 E5        30.08S WCI  23
$$
MNZ029>031-032-039>041-046>048-054>057-064-301200-
   West Central Minnesota

CITY           SKY/WX    TMP DP  RH WIND       PRES   REMARKS
FERGUS FALLS   CLOUDY    37  37 100 CALM      30.02F
WHEATON        CLOUDY    36  34  93 E5        30.00F
MORRIS         DRIZZLE   39  37  93 E8        29.96F
ALEXANDRIA     CLOUDY    38  36  92 E8        29.98F
ELBOW LAKE     CLOUDY    38  37  98 CALM      29.98F
WADENA         CLOUDY    32  30  93 CALM      29.99F
GLENWOOD       CLOUDY    37  36  93 NE8       29.97F
APPLETON       CLOUDY    39  37  93 CALM      29.96F
BENSON         DRIZZLE   41  36  81 E6        29.98F
ORTONVILLE     CLOUDY    39  36  87 E8        29.96F
MADISON        DRIZZLE   41  41 100 NE5       29.95F
WILLMAR        LGT RAIN  39  37  93 E12       29.96F
$$
MNZ033>034-036-042>043-049>051-058-059-301200-
   Central Minnesota

CITY           SKY/WX    TMP DP  RH WIND       PRES   REMARKS
ST CLOUD       CLOUDY    35  32  88 NE7       29.98F WCI  29
SAUK CENTRE    CLOUDY    37  34  90 NE7       29.98F
PAYNESVILLE    CLOUDY    37  38 100 NE7       29.97F
AITKIN         CLOUDY    32  28  86 CALM      30.01F
PINE RIVER     CLOUDY    27  27 100 CALM      30.05F
BRAINERD       CLOUDY    31  29  92 NE3       30.02F
STAPLES        CLOUDY    30  28  93 E3        30.01F
LONG PRAIRIE   CLOUDY    34  32  93 N5        29.99F WCI  30
LITTLE FALLS   CLOUDY    34  30  86 CALM      30.00F
LITCHFIELD     CLOUDY    39  37  93 NE9       29.96F
BUFFALO        CLOUDY    38  35  90 N7        29.97F
MAPLE LAKE     CLOUDY    38  36  91 NE7       29.97F
HUTCHINSON     CLOUDY    39  38  97 NE10      29.95F
$$
MNZ037-044-045-052-053-301200-
   East Central Minnesota

CITY           SKY/WX    TMP DP  RH WIND       PRES   REMARKS
PRINCETON      CLOUDY    36  30  80 NE7       29.99F
MORA           CLOUDY    32  28  86 NE3       30.02F
CAMBRIDGE      CLOUDY    37  28  70 NE5       29.98F
RUSH CITY      CLOUDY    33  30  88 N6        30.01F WCI  28
MOOSE LAKE     CLOUDY    32  30  93 NE5       30.02F WCI  27
CLOQUET        CLOUDY    32  30  93 E3        30.04F
MCGREGOR       CLOUDY    32  30  93 E5        30.04F WCI  27
$$
MNZ071>073-080-081-089-090-097-098-301200-
   Southwest Minnesota

CITY           SKY/WX    TMP DP  RH WIND       PRES   REMARKS
MONTEVIDEO     DRIZZLE   37  37 100 E8        29.95F
GRANITE FALLS  CLOUDY    40  38  90 NE13      29.95F
CANBY          CLOUDY    39  38  97 CALM      29.95F FOG
MARSHALL       LGT RAIN  38  37  97 E13       29.92F FOG
REDWOOD FALLS  CLOUDY    39  36  89 NE8       29.91F
OLIVIA         CLOUDY    39  36  87 NE9       29.93F
PIPESTONE      CLOUDY    37  34  87 NE9       29.87F
WINDOM         MOCLDY    37  36  93 NE17      29.86F
WORTHINGTON    CLOUDY    36  35  96 NE16      29.84F
JACKSON          N/A     36  36 100 NE18      29.85F FOG
TRACY          CLOUDY    38  38  98 NE12G18   29.90F
SLAYTON        CLOUDY    36  36  99 NE12G20   29.88F FOG
$$
MNZ065>067-074>077-082>085-091>093-301200-
   South Central Minnesota

CITY           SKY/WX    TMP DP  RH WIND       PRES   REMARKS
MANKATO        LGT RAIN  38  36  92 NE15      29.90S
NEW ULM        CLOUDY    37  36  93 NE13      29.90F
ST JAMES       CLOUDY    37  36  93 NE12      29.89F
FAIRMONT       CLOUDY    37  35  92 NE15      29.85F
GLENCOE        CLOUDY    39  39 100 NE5       29.93F
FARIBAULT      CLOUDY    37  37 100 NE12      29.90F
OWATONNA       LGT RAIN  37  36  93 NE13      29.88F
WASECA         DRIZZLE   36  34  93 NE12      29.89F
ALBERT LEA     CLOUDY    36  36 100 NE13G21   29.85S FOG
$$
MNZ078>079-086>088-094>096-301200-
   Southeast Minnesota

CITY           SKY/WX    TMP DP  RH WIND       PRES   REMARKS
ROCHESTER      CLOUDY    36  35  96 E16       29.86F FOG
RED WING       DRIZZLE   37  36  93 E8        29.94S
STANTON        CLOUDY    38  36  90 NE13      29.91F
DODGE CENTER   CLOUDY    36  36 100 NE15      29.87F FOG
WINONA         DRIZZLE   37  36  93 E10       29.92F
AUSTIN         DRIZZLE   36  34  93 NE13G18   29.84S
PRESTON        CLOUDY    35  33  92 NE12      29.85F WCI  27
$$
ABBREVIATIONS USED IN REMARKS
   TC - TEMPERATURES IN CELSIUS
  WCI - WIND CHILL INDEX
   HX - HEAT INDEX
  VSB - VISIBILITY
$$



USA.gov is the U.S. government's official web portal to all federal, state and local government web resources and services.